TimeEDT,TemperatureF,Dew PointF,Humidity,Sea Level PressureIn,VisibilityMPH,Wind Direction,Wind SpeedMPH,Gust SpeedMPH,PrecipitationIn,Events,Conditions,WindDirDegrees,DateUTC
12:53 AM,37.0,26.1,65,30.19,10.0,Calm,Calm,-,N/A,,Clear,0,2013-03-15 04:53:00
1:53 AM,35.1,27.0,72,30.18,10.0,Calm,Calm,-,N/A,,Clear,0,2013-03-15 05:53:00
2:53 AM,32.0,25.0,75,30.19,10.0,WNW,4.6,-,N/A,,Clear,300,2013-03-15 06:53:00
3:53 AM,33.1,25.0,72,30.18,10.0,Calm,Calm,-,N/A,,Clear,0,2013-03-15 07:53:00
4:53 AM,32.0,26.1,79,30.17,10.0,Calm,Calm,-,N/A,,Clear,0,2013-03-15 08:53:00
5:53 AM,28.9,25.0,85,30.20,10.0,WSW,3.5,-,N/A,,Clear,240,2013-03-15 09:53:00
6:53 AM,30.0,25.0,82,30.21,10.0,Calm,Calm,-,N/A,,Clear,0,2013-03-15 10:53:00
7:53 AM,30.0,25.0,82,30.21,10.0,Calm,Calm,-,N/A,,Clear,0,2013-03-15 11:53:00
8:53 AM,37.9,30.9,76,30.22,10.0,Calm,Calm,-,N/A,,Clear,0,2013-03-15 12:53:00
9:53 AM,46.9,24.1,41,30.22,10.0,Calm,Calm,-,N/A,,Clear,0,2013-03-15 13:53:00
10:53 AM,52.0,17.1,25,30.22,10.0,Calm,Calm,-,N/A,,Clear,0,2013-03-15 14:53:00
11:53 AM,55.9,19.0,24,30.19,10.0,Calm,Calm,-,N/A,,Clear,0,2013-03-15 15:53:00
12:53 PM,59.0,21.9,24,30.15,10.0,West,10.4,-,N/A,,Clear,260,2013-03-15 16:53:00
1:53 PM,62.1,25.0,24,30.11,10.0,West,12.7,-,N/A,,Clear,260,2013-03-15 17:53:00
2:53 PM,64.0,27.0,25,30.08,10.0,SSW,11.5,-,N/A,,Clear,210,2013-03-15 18:53:00
3:53 PM,66.0,28.9,25,30.05,10.0,WSW,12.7,18.4,N/A,,Clear,250,2013-03-15 19:53:00
4:53 PM,66.0,30.0,26,30.02,10.0,SW,12.7,-,N/A,,Clear,230,2013-03-15 20:53:00
5:53 PM,64.0,30.9,29,30.00,10.0,SSW,12.7,17.3,N/A,,Clear,210,2013-03-15 21:53:00
6:53 PM,62.1,32.0,32,29.99,10.0,South,5.8,-,N/A,,Clear,190,2013-03-15 22:53:00
7:53 PM,57.0,34.0,42,29.99,10.0,South,5.8,-,N/A,,Clear,180,2013-03-15 23:53:00
8:53 PM,59.0,34.0,39,29.98,8.0,South,9.2,-,N/A,,Clear,190,2013-03-16 00:53:00
9:53 PM,57.0,35.1,44,29.97,10.0,SSW,8.1,-,N/A,,Clear,200,2013-03-16 01:53:00
10:53 PM,57.0,36.0,45,29.97,10.0,SSW,9.2,-,N/A,,Clear,200,2013-03-16 02:53:00
11:53 PM,55.9,37.9,51,29.97,10.0,SSW,11.5,-,N/A,,Clear,210,2013-03-16 03:53:00